Weather History for Ellensburg, WA

Change the Weather History Date:

Sunday, March 16, 2014

  Actual Average (KYKM) Record (KYKM)
Temperature  
Mean Temperature 46 °F 43 °F  
Max Temperature 57 °F 57 °F 76 °F (1947)
Min Temperature 37 °F 30 °F 20 °F (2002)
Degree Days  
Heating Degree Days 19 22  
Month to date heating degree days 378  
Since 1 July heating degree days 4905  
Cooling Degree Days 0 0  
Month to date cooling degree days 0  
Year to date cooling degree days 0  
Moisture  
Dew Point 36 °F    
Average Humidity 65    
Maximum Humidity 83    
Minimum Humidity 49    
Precipitation  
Precipitation 0.00 in 0.02 in 0.34 in (1957)
Month to date precipitation 0.37  
Year to date precipitation 2.29  
Snow  
Snow 0.00 in 0.00 in 1.30 in (1993)
Month to date snowfall 0.5  
Year to date snowfall 8.4  
Since 1 July snowfall 21.4  
Snow Depth -    
Sea Level Pressure  
Sea Level Pressure 30.00 in    
Wind  
Wind Speed 13 mph (NW)    
Max Wind Speed 30 mph    
Max Gust Speed 38 mph    
Visibility 10 miles    
Events Rain    
T = Trace of Precipitation, MM = Missing Value Source: NWS Daily Summary

Daily Weather History Graph

Daily Weather History Graph

Search for Another Location

Airport:

Trip Planner

Search our weather history database for the weather conditions in past years. The results will help you decide how hot, cold, wet, or windy it might be!

Date:

Astronomy

Mar. 16, 2014 Rise Set
Actual Time 7:12 AM PDT 7:09 PM PDT
Civil Twilight 6:42 AM PDT 7:39 PM PDT
Nautical Twilight 6:07 AM PDT 8:15 PM PDT
Astronomical Twilight 5:30 AM PDT 8:51 PM PDT
Moon 7:35 PM PDT (3/16) 6:57 AM PDT (3/16)
Length of Visible Light 12h 57m
Length of Day
11h 56m
Full, 100% of the Moon is Illuminated
Mar 16
Full
Mar 23
Last Quarter
Mar 30
New
Apr 7
First Quarter
Apr 15
Full

Hourly Weather History & Observations

Time (PDT) Temp. Windchill Dew Point Humidity Pressure Visibility Wind Dir Wind Speed Gust Speed Precip Events Conditions
12:53 AM 41.0 °F 39.0 °F 33.1 °F 73% 30.16 in 10.0 mi NW 3.5 mph - N/A   Clear
1:53 AM 37.9 °F - 33.1 °F 83% 30.16 in 10.0 mi Calm Calm - N/A   Scattered Clouds
2:53 AM 39.9 °F - 34.0 °F 79% 30.14 in 10.0 mi Calm Calm - N/A   Overcast
3:53 AM 43.0 °F - 36.0 °F 76% 30.12 in 10.0 mi Calm Calm - N/A   Overcast
4:53 AM 48.9 °F - 42.1 °F 77% 30.09 in 10.0 mi WNW 12.7 mph 17.3 mph N/A   Overcast
5:53 AM 50.0 °F - 41.0 °F 71% 30.07 in 10.0 mi West 10.4 mph - N/A   Overcast
6:53 AM 48.9 °F - 39.9 °F 71% 30.08 in 10.0 mi NW 19.6 mph 31.1 mph N/A   Overcast
7:05 AM 48.0 °F - 37.0 °F 66% 30.08 in 10.0 mi NW 20.7 mph 32.2 mph N/A   Overcast
7:53 AM 48.0 °F - 35.1 °F 61% 30.09 in 10.0 mi NW 24.2 mph 31.1 mph N/A   Overcast
8:53 AM 50.0 °F - 35.1 °F 57% 30.09 in 10.0 mi NW 23.0 mph - N/A   Overcast
9:53 AM 50.0 °F - 35.1 °F 57% 30.09 in 10.0 mi NW 24.2 mph 33.4 mph N/A   Overcast
10:53 AM 52.0 °F - 36.0 °F 54% 30.08 in 10.0 mi NW 24.2 mph 29.9 mph N/A   Overcast
11:53 AM 55.0 °F - 37.0 °F 51% 30.06 in 10.0 mi NW 21.9 mph 27.6 mph N/A   Overcast
12:53 PM 55.9 °F - 37.0 °F 49% 30.03 in 10.0 mi NW 21.9 mph 27.6 mph N/A   Overcast
1:53 PM 55.9 °F - 37.0 °F 49% 29.99 in 10.0 mi NW 18.4 mph - N/A   Overcast
2:53 PM 54.0 °F - 37.0 °F 53% 29.96 in 10.0 mi NW 24.2 mph 28.8 mph N/A   Overcast
3:53 PM 53.1 °F - 35.1 °F 50% 29.93 in 10.0 mi WNW 25.3 mph 31.1 mph N/A   Overcast
4:53 PM 50.0 °F - 34.0 °F 54% 29.90 in 10.0 mi WNW 29.9 mph 38.0 mph N/A   Partly Cloudy
5:53 PM 46.9 °F - 35.1 °F 63% 29.89 in 10.0 mi WNW 24.2 mph 31.1 mph N/A   Overcast
6:53 PM 44.1 °F 35.2 °F 35.1 °F 71% 29.88 in 10.0 mi NW 23.0 mph 32.2 mph 0.00 in Rain Light Rain
7:53 PM 43.0 °F 35.4 °F 35.1 °F 74% 29.85 in 10.0 mi NW 16.1 mph - 0.00 in   Overcast
8:53 PM 43.0 °F 35.7 °F 35.1 °F 74% 29.83 in 10.0 mi NW 15.0 mph - N/A   Overcast
9:53 PM 42.1 °F 32.3 °F 33.1 °F 70% 29.82 in 10.0 mi NW 24.2 mph 34.5 mph N/A   Partly Cloudy
10:53 PM 41.0 °F 30.5 °F 32.0 °F 70% 29.80 in 10.0 mi NW 26.5 mph 34.5 mph N/A   Overcast
11:53 PM 39.9 °F 29.2 °F 30.9 °F 70% 29.79 in 10.0 mi NW 25.3 mph 32.2 mph N/A   Mostly Cloudy